22-06-2022, 00:00:08,    190,    0.0,   15.0,   0.00,   0.00, 1011.5,   53.8, -999.0
22-06-2022, 00:00:18,    191,    0.0,   15.0,   0.00,   0.00, 1011.5,   53.8, -999.0
22-06-2022, 00:00:28,    190,    0.0,   15.0,   0.00,   0.00, 1011.6,   53.7, -999.0
22-06-2022, 00:00:38,    190,    0.0,   15.0,   0.00,   0.00, 1011.5,   53.7, -999.0
22-06-2022, 00:00:48,    190,    0.0,   15.0,   0.00,   0.00, 1011.6,   53.8, -999.0
22-06-2022, 00:00:58,    190,    0.0,   15.0,   0.00,   0.00, 1011.6,   54.0, -999.0
22-06-2022, 00:01:08,    190,    0.0,   14.9,   0.00,   0.00, 1011.6,   53.9, -999.0
22-06-2022, 00:01:18,    190,    0.0,   14.8,   0.00,   0.00, 1011.6,   53.9, -999.0
22-06-2022, 00:01:28,    190,    0.0,   14.9,   0.00,   0.00, 1011.5,   53.9, -999.0
22-06-2022, 00:01:38,    190,    0.0,   14.9,   0.00,   0.00, 1011.6,   54.0, -999.0
22-06-2022, 00:01:48,    191,    0.0,   14.9,   0.00,   0.00, 1011.5,   54.1, -999.0
22-06-2022, 00:01:57,    190,    0.0,   14.9,   0.00,   0.00, 1011.6,   54.1, -999.0
22-06-2022, 00:02:08,    190,    0.0,   14.8,   0.00,   0.00, 1011.6,   53.9, -999.0
22-06-2022, 00:02:18,    190,    0.0,   14.8,   0.00,   0.00, 1011.6,   54.1, -999.0
22-06-2022, 00:02:27,    190,    0.0,   14.9,   0.00,   0.00, 1011.6,   54.1, -999.0
22-06-2022, 00:02:37,    190,    0.0,   14.9,   0.00,   0.00, 1011.5,   54.0, -999.0
22-06-2022, 00:02:47,    190,    0.0,   14.9,   0.00,   0.00, 1011.6,   54.1, -999.0
22-06-2022, 00:02:57,    190,    0.0,   14.8,   0.00,   0.00, 1011.6,   54.0, -999.0
22-06-2022, 00:03:07,    191,    0.0,   14.8,   0.00,   0.00, 1011.6,   54.0, -999.0
22-06-2022, 00:03:17,    190,    0.0,   14.8,   0.00,   0.00, 1011.6,   54.1, -999.0
22-06-2022, 00:03:28,    190,    0.0,   14.8,   0.00,   0.00, 1011.6,   54.2, -999.0
22-06-2022, 00:03:37,    191,    0.0,   14.8,   0.00,   0.00, 1011.6,   54.1, -999.0
22-06-2022, 00:03:47,    190,    0.0,   14.9,   0.00,   0.00, 1011.6,   54.2, -999.0
22-06-2022, 00:03:57,    190,    0.0,   14.8,   0.00,   0.00, 1011.6,   54.1, -999.0
22-06-2022, 00:04:07,    191,    0.0,   14.8,   0.00,   0.00, 1011.6,   54.0, -999.0
22-06-2022, 00:04:17,    190,    0.0,   14.7,   0.00,   0.00, 1011.6,   54.1, -999.0
22-06-2022, 00:04:27,    190,    0.0,   14.8,   0.00,   0.00, 1011.6,   54.0, -999.0
22-06-2022, 00:04:37,    190,    0.0,   14.8,   0.00,   0.00, 1011.6,   54.1, -999.0
22-06-2022, 00:04:47,    190,    0.0,   14.7,   0.00,   0.00, 1011.6,   54.2, -999.0
22-06-2022, 00:04:56,    190,    0.0,   14.6,   0.00,   0.00, 1011.6,   54.2, -999.0
22-06-2022, 00:05:07,    190,    0.0,   14.7,   0.00,   0.00, 1011.6,   54.2, -999.0
22-06-2022, 00:05:17,    190,    0.0,   14.7,   0.00,   0.00, 1011.6,   54.3, -999.0
22-06-2022, 00:05:26,    190,    0.0,   14.7,   0.00,   0.00, 1011.6,   54.4, -999.0
22-06-2022, 00:05:36,    190,    0.0,   14.7,   0.00,   0.00, 1011.6,   54.4, -999.0
22-06-2022, 00:05:46,    190,    0.0,   14.7,   0.00,   0.00, 1011.6,   54.4, -999.0
22-06-2022, 00:05:56,    190,    0.0,   14.7,   0.00,   0.00, 1011.6,   54.6, -999.0
22-06-2022, 00:06:06,    190,    0.0,   14.7,   0.00,   0.00, 1011.6,   54.7, -999.0
22-06-2022, 00:06:16,    190,    0.0,   14.8,   0.00,   0.00, 1011.6,   54.8, -999.0
22-06-2022, 00:06:26,    190,    0.0,   14.8,   0.00,   0.00, 1011.7,   54.9, -999.0
22-06-2022, 00:06:36,    190,    0.0,   14.7,   0.00,   0.00, 1011.6,   54.8, -999.0
22-06-2022, 00:06:46,    190,    0.0,   14.7,   0.00,   0.00, 1011.6,   54.9, -999.0
22-06-2022, 00:06:56,    190,    0.0,   14.7,   0.00,   0.00, 1011.6,   54.8, -999.0
22-06-2022, 00:07:06,    190,    0.0,   14.7,   0.00,   0.00, 1011.6,   54.9, -999.0
22-06-2022, 00:07:19,    190,    0.0,   14.7,   0.00,   0.00, 1011.7,   54.8, -999.0
22-06-2022, 00:07:26,    190,    0.0,   14.6,   0.00,   0.00, 1011.7,   54.8, -999.0
22-06-2022, 00:07:36,    190,    0.0,   14.5,   0.00,   0.00, 1011.7,   54.8, -999.0
22-06-2022, 00:07:46,    190,    0.0,   14.7,   0.00,   0.00, 1011.6,   55.0, -999.0
22-06-2022, 00:07:56,    190,    0.0,   14.7,   0.00,   0.00, 1011.7,   55.0, -999.0
22-06-2022, 00:08:05,    190,    0.0,   14.7,   0.00,   0.00, 1011.6,   55.2, -999.0
22-06-2022, 00:08:16,    190,    0.0,   14.6,   0.00,   0.00, 1011.7,   55.1, -999.0
22-06-2022, 00:08:25,    190,    0.0,   14.7,   0.00,   0.00, 1011.6,   55.2, -999.0
22-06-2022, 00:08:35,    190,    0.0,   14.7,   0.00,   0.00, 1011.6,   55.2, -999.0
22-06-2022, 00:08:45,    190,    0.0,   14.6,   0.00,   0.00, 1011.7,   55.2, -999.0
22-06-2022, 00:08:55,    190,    0.0,   14.7,   0.00,   0.00, 1011.6,   55.2, -999.0
22-06-2022, 00:09:05,    190,    0.0,   14.6,   0.00,   0.00, 1011.7,   55.3, -999.0
22-06-2022, 00:09:15,    190,    0.0,   14.6,   0.00,   0.00, 1011.6,   55.3, -999.0
22-06-2022, 00:09:25,    190,    0.0,   14.7,   0.00,   0.00, 1011.6,   55.2, -999.0
22-06-2022, 00:09:35,    190,    0.0,   14.6,   0.00,   0.00, 1011.6,   55.4, -999.0
22-06-2022, 00:09:45,    190,    0.0,   14.6,   0.00,   0.00, 1011.6,   55.4, -999.0
22-06-2022, 00:09:55,    190,    0.0,   14.6,   0.00,   0.00, 1011.6,   55.4, -999.0
22-06-2022, 00:10:05,    190,    0.0,   14.7,   0.00,   0.00, 1011.6,   55.5, -999.0
22-06-2022, 00:10:15,    190,    0.0,   14.5,   0.00,   0.00, 1011.6,   55.4, -999.0
22-06-2022, 00:10:25,    189,    0.0,   14.6,   0.00,   0.00, 1011.6,   55.4, -999.0
22-06-2022, 00:10:35,    190,    0.0,   14.6,   0.00,   0.00, 1011.6,   55.7, -999.0
22-06-2022, 00:10:45,    190,    0.0,   14.6,   0.00,   0.00, 1011.6,   55.4, -999.0
22-06-2022, 00:10:54,    190,    0.0,   14.7,   0.00,   0.00, 1011.6,   55.5, -999.0
22-06-2022, 00:11:04,    190,    0.0,   14.7,   0.00,   0.00, 1011.6,   55.5, -999.0
22-06-2022, 00:11:15,    190,    0.0,   14.6,   0.00,   0.00, 1011.6,   55.5, -999.0
22-06-2022, 00:11:24,    190,    0.0,   14.6,   0.00,   0.00, 1011.6,   55.4, -999.0
22-06-2022, 00:11:34,    190,    0.0,   14.7,   0.00,   0.00, 1011.6,   55.5, -999.0
22-06-2022, 00:11:45,    190,    0.0,   14.7,   0.00,   0.00, 1011.6,   55.7, -999.0
22-06-2022, 00:11:54,    190,    0.0,   14.7,   0.00,   0.00, 1011.6,   55.5, -999.0
22-06-2022, 00:12:04,    190,    0.0,   14.7,   0.00,   0.00, 1011.6,   55.7, -999.0
22-06-2022, 00:12:14,    190,    0.0,   14.6,   0.00,   0.00, 1011.6,   55.5, -999.0
22-06-2022, 00:12:24,    190,    0.0,   14.6,   0.00,   0.00, 1011.6,   55.7, -999.0
22-06-2022, 00:12:34,    190,    0.0,   14.6,   0.00,   0.00, 1011.6,   55.7, -999.0
22-06-2022, 00:12:44,    190,    0.0,   14.7,   0.00,   0.00, 1011.6,   55.7, -999.0
22-06-2022, 00:12:54,    190,    0.0,   14.6,   0.00,   0.00, 1011.6,   55.8, -999.0
22-06-2022, 00:13:04,    190,    0.0,   14.7,   0.00,   0.00, 1011.6,   56.0, -999.0
22-06-2022, 00:13:14,    190,    0.0,   14.6,   0.00,   0.00, 1011.6,   56.1, -999.0
22-06-2022, 00:13:24,    190,    0.0,   14.6,   0.00,   0.00, 1011.6,   56.1, -999.0
22-06-2022, 00:13:33,    190,    0.0,   14.6,   0.00,   0.00, 1011.6,   56.1, -999.0
22-06-2022, 00:13:44,    190,    0.0,   14.7,   0.00,   0.00, 1011.6,   56.0, -999.0
22-06-2022, 00:13:54,    191,    0.0,   14.6,   0.00,   0.00, 1011.6,   56.2, -999.0
22-06-2022, 00:14:03,    190,    0.0,   14.6,   0.00,   0.00, 1011.6,   56.3, -999.0
22-06-2022, 00:14:13,    191,    0.0,   14.7,   0.00,   0.00, 1011.6,   56.2, -999.0
22-06-2022, 00:14:23,    190,    0.0,   14.6,   0.00,   0.00, 1011.6,   56.3, -999.0
22-06-2022, 00:14:33,    190,    0.0,   14.6,   0.00,   0.00, 1011.6,   56.3, -999.0
22-06-2022, 00:14:43,    190,    0.0,   14.6,   0.00,   0.00, 1011.6,   56.3, -999.0
22-06-2022, 00:14:53,    190,    0.0,   14.6,   0.00,   0.00, 1011.6,   56.5, -999.0
22-06-2022, 00:15:03,    190,    0.0,   14.6,   0.00,   0.00, 1011.6,   56.4, -999.0
22-06-2022, 00:15:13,    190,    0.0,   14.7,   0.00,   0.00, 1011.6,   56.3, -999.0
22-06-2022, 00:15:23,    190,    0.0,   14.6,   0.00,   0.00, 1011.6,   56.4, -999.0
22-06-2022, 00:15:33,    190,    0.0,   14.6,   0.00,   0.00, 1011.6,   56.9, -999.0
22-06-2022, 00:15:43,    190,    0.0,   14.7,   0.00,   0.00, 1011.6,   56.8, -999.0
22-06-2022, 00:15:53,    190,    0.0,   14.7,   0.00,   0.00, 1011.6,   56.7, -999.0
22-06-2022, 00:16:03,    190,    0.0,   14.7,   0.00,   0.00, 1011.6,   56.6, -999.0
22-06-2022, 00:16:13,    190,    0.0,   14.7,   0.00,   0.00, 1011.6,   56.5, -999.0
22-06-2022, 00:16:23,    190,    0.0,   14.7,   0.00,   0.00, 1011.6,   56.4, -999.0
22-06-2022, 00:16:32,    190,    0.0,   14.7,   0.00,   0.00, 1011.6,   56.5, -999.0
22-06-2022, 00:16:43,    190,    0.0,   14.7,   0.00,   0.00, 1011.6,   56.5, -999.0
22-06-2022, 00:16:53,    190,    0.0,   14.7,   0.00,   0.00, 1011.6,   56.6, -999.0
22-06-2022, 00:17:02,    190,    0.0,   14.7,   0.00,   0.00, 1011.6,   56.6, -999.0
22-06-2022, 00:17:12,    190,    0.0,   14.6,   0.00,   0.00, 1011.6,   56.6, -999.0
22-06-2022, 00:17:23,    190,    0.0,   14.7,   0.00,   0.00, 1011.6,   56.7, -999.0
22-06-2022, 00:17:32,    190,    0.0,   14.7,   0.00,   0.00, 1011.6,   56.8, -999.0
22-06-2022, 00:17:42,    190,    0.0,   14.7,   0.00,   0.00, 1011.6,   56.9, -999.0
22-06-2022, 00:17:52,    190,    0.0,   14.7,   0.00,   0.00, 1011.6,   56.8, -999.0
22-06-2022, 00:18:02,    190,    0.0,   14.7,   0.00,   0.00, 1011.6,   56.8, -999.0
22-06-2022, 00:18:12,    190,    0.0,   14.7,   0.00,   0.00, 1011.6,   56.8, -999.0
22-06-2022, 00:18:22,    190,    0.0,   14.7,   0.00,   0.00, 1011.6,   56.9, -999.0
22-06-2022, 00:18:32,    190,    0.0,   14.6,   0.00,   0.00, 1011.6,   56.9, -999.0
22-06-2022, 00:18:42,    190,    0.0,   14.6,   0.00,   0.00, 1011.6,   56.8, -999.0
22-06-2022, 00:18:52,    190,    0.0,   14.7,   0.00,   0.00, 1011.6,   56.9, -999.0
22-06-2022, 00:19:02,    190,    0.0,   14.5,   0.00,   0.00, 1011.6,   56.9, -999.0
22-06-2022, 00:19:12,    191,    0.0,   14.7,   0.00,   0.00, 1011.6,   56.9, -999.0
22-06-2022, 00:19:22,    190,    0.0,   14.6,   0.00,   0.00, 1011.6,   56.8, -999.0
22-06-2022, 00:19:32,    191,    0.0,   14.6,   0.00,   0.00, 1011.6,   56.9, -999.0
22-06-2022, 00:19:41,    190,    0.0,   14.6,   0.00,   0.00, 1011.6,   56.6, -999.0
22-06-2022, 00:19:52,    190,    0.0,   14.6,   0.00,   0.00, 1011.6,   56.6, -999.0
22-06-2022, 00:20:02,    190,    0.0,   14.5,   0.00,   0.00, 1011.6,   56.8, -999.0
22-06-2022, 00:20:11,    190,    0.0,   14.5,   0.00,   0.00, 1011.6,   56.9, -999.0
22-06-2022, 00:20:21,    190,    0.0,   14.5,   0.00,   0.00, 1011.6,   56.9, -999.0
22-06-2022, 00:20:31,    190,    0.0,   14.5,   0.00,   0.00, 1011.6,   56.9, -999.0
22-06-2022, 00:20:41,    190,    0.0,   14.5,   0.00,   0.00, 1011.6,   57.0, -999.0
22-06-2022, 00:20:51,    191,    0.0,   14.4,   0.00,   0.00, 1011.6,   57.0, -999.0
22-06-2022, 00:21:01,    190,    0.0,   14.4,   0.00,   0.00, 1011.6,   57.2, -999.0
22-06-2022, 00:21:11,    190,    0.0,   14.5,   0.00,   0.00, 1011.6,   57.3, -999.0
22-06-2022, 00:21:21,    190,    0.0,   14.5,   0.00,   0.00, 1011.6,   57.4, -999.0
22-06-2022, 00:21:31,    190,    0.0,   14.5,   0.00,   0.00, 1011.6,   57.4, -999.0
22-06-2022, 00:21:41,    190,    0.0,   14.5,   0.00,   0.00, 1011.6,   57.5, -999.0
22-06-2022, 00:21:51,    191,    0.0,   14.4,   0.00,   0.00, 1011.6,   57.6, -999.0
22-06-2022, 00:22:01,    190,    0.0,   14.4,   0.00,   0.00, 1011.6,   57.7, -999.0
22-06-2022, 00:22:11,    190,    0.0,   14.4,   0.00,   0.00, 1011.6,   57.7, -999.0
22-06-2022, 00:22:21,    190,    0.0,   14.4,   0.00,   0.00, 1011.6,   57.7, -999.0
22-06-2022, 00:22:31,    190,    0.0,   14.5,   0.00,   0.00, 1011.6,   57.8, -999.0
22-06-2022, 00:22:41,    190,    0.0,   14.5,   0.00,   0.00, 1011.6,   57.7, -999.0
22-06-2022, 00:22:50,    190,    0.0,   14.3,   0.00,   0.00, 1011.6,   57.8, -999.0
22-06-2022, 00:23:01,    190,    0.0,   14.5,   0.00,   0.00, 1011.6,   57.7, -999.0
22-06-2022, 00:23:10,    190,    0.0,   14.5,   0.00,   0.00, 1011.6,   57.8, -999.0
22-06-2022, 00:23:20,    190,    0.0,   14.5,   0.00,   0.00, 1011.6,   57.7, -999.0
22-06-2022, 00:23:30,    190,    0.0,   14.5,   0.00,   0.00, 1011.6,   57.8, -999.0
22-06-2022, 00:23:40,    190,    0.0,   14.5,   0.00,   0.00, 1011.6,   57.9, -999.0
22-06-2022, 00:23:50,    190,    0.0,   14.5,   0.00,   0.00, 1011.6,   57.9, -999.0
22-06-2022, 00:24:00,    190,    0.0,   14.5,   0.00,   0.00, 1011.6,   58.0, -999.0
22-06-2022, 00:24:10,    190,    0.0,   14.5,   0.00,   0.00, 1011.6,   58.2, -999.0
22-06-2022, 00:24:20,    190,    0.0,   14.6,   0.00,   0.00, 1011.6,   57.9, -999.0
22-06-2022, 00:24:30,    191,    0.0,   14.5,   0.00,   0.00, 1011.6,   58.0, -999.0
22-06-2022, 00:24:40,    190,    0.0,   14.6,   0.00,   0.00, 1011.6,   57.9, -999.0
22-06-2022, 00:24:50,    190,    0.0,   14.5,   0.00,   0.00, 1011.6,   58.0, -999.0
22-06-2022, 00:25:00,    190,    0.0,   14.5,   0.00,   0.00, 1011.6,   58.0, -999.0
22-06-2022, 00:25:10,    190,    0.0,   14.6,   0.00,   0.00, 1011.6,   58.0, -999.0
22-06-2022, 00:25:19,    190,    0.0,   14.6,   0.00,   0.00, 1011.6,   58.0, -999.0
22-06-2022, 00:25:30,    190,    0.0,   14.6,   0.00,   0.00, 1011.6,   58.0, -999.0
22-06-2022, 00:25:40,    190,    0.0,   14.6,   0.00,   0.00, 1011.6,   58.1, -999.0
22-06-2022, 00:25:49,    190,    0.0,   14.6,   0.00,   0.00, 1011.6,   57.9, -999.0
22-06-2022, 00:25:59,    190,    0.0,   14.6,   0.00,   0.00, 1011.6,   57.9, -999.0
22-06-2022, 00:26:10,    190,    0.0,   14.6,   0.00,   0.00, 1011.6,   57.8, -999.0
22-06-2022, 00:26:19,    190,    0.0,   14.6,   0.00,   0.00, 1011.6,   57.9, -999.0
22-06-2022, 00:26:29,    191,    0.0,   14.7,   0.00,   0.00, 1011.6,   57.8, -999.0
22-06-2022, 00:26:39,    190,    0.0,   14.7,   0.00,   0.00, 1011.6,   57.9, -999.0
22-06-2022, 00:26:49,    190,    0.0,   14.7,   0.00,   0.00, 1011.5,   58.0, -999.0
22-06-2022, 00:26:59,    190,    0.0,   14.7,   0.00,   0.00, 1011.5,   57.9, -999.0
22-06-2022, 00:27:09,    190,    0.0,   14.6,   0.00,   0.00, 1011.6,   58.0, -999.0
22-06-2022, 00:27:19,    190,    0.0,   14.7,   0.00,   0.00, 1011.6,   57.9, -999.0
22-06-2022, 00:27:29,    190,    0.0,   14.6,   0.00,   0.00, 1011.6,   58.0, -999.0
22-06-2022, 00:27:39,    190,    0.0,   14.6,   0.00,   0.00, 1011.6,   57.9, -999.0
22-06-2022, 00:27:49,    191,    0.0,   14.7,   0.00,   0.00, 1011.6,   58.0, -999.0
22-06-2022, 00:27:59,    190,    0.0,   14.7,   0.00,   0.00, 1011.5,   57.8, -999.0
22-06-2022, 00:28:09,    190,    0.0,   14.7,   0.00,   0.00, 1011.5,   57.8, -999.0
22-06-2022, 00:28:19,    190,    0.0,   14.7,   0.00,   0.00, 1011.6,   58.0, -999.0
22-06-2022, 00:28:28,    190,    0.0,   14.7,   0.00,   0.00, 1011.5,   57.9, -999.0
22-06-2022, 00:28:39,    192,    0.0,   14.8,   0.00,   0.00, 1011.5,   57.8, -999.0
22-06-2022, 00:28:49,    190,    0.0,   14.7,   0.00,   0.00, 1011.5,   57.9, -999.0
22-06-2022, 00:28:58,    191,    0.0,   14.7,   0.00,   0.00, 1011.5,   57.8, -999.0
22-06-2022, 00:29:08,    191,    0.0,   14.7,   0.00,   0.00, 1011.5,   57.8, -999.0
22-06-2022, 00:29:18,    190,    0.0,   14.7,   0.00,   0.00, 1011.5,   57.8, -999.0
22-06-2022, 00:29:28,    190,    0.0,   14.6,   0.00,   0.00, 1011.5,   57.9, -999.0
22-06-2022, 00:29:38,    190,    0.0,   14.6,   0.00,   0.00, 1011.5,   57.7, -999.0
22-06-2022, 00:29:48,    190,    0.0,   14.6,   0.00,   0.00, 1011.5,   57.9, -999.0
22-06-2022, 00:29:58,    191,    0.0,   14.6,   0.00,   0.00, 1011.5,   57.9, -999.0
22-06-2022, 00:30:08,    190,    0.0,   14.7,   0.00,   0.00, 1011.5,   57.8, -999.0
22-06-2022, 00:30:18,    190,    0.0,   14.6,   0.00,   0.00, 1011.4,   58.0, -999.0
22-06-2022, 00:30:28,    190,    0.0,   14.6,   0.00,   0.00, 1011.5,   58.0, -999.0
22-06-2022, 00:30:38,    191,    0.0,   14.6,   0.00,   0.00, 1011.4,   58.0, -999.0
22-06-2022, 00:30:48,    190,    0.0,   14.5,   0.00,   0.00, 1011.5,   57.9, -999.0
22-06-2022, 00:30:58,    190,    0.0,   14.5,   0.00,   0.00, 1011.4,   58.0, -999.0
22-06-2022, 00:31:08,    190,    0.0,   14.5,   0.00,   0.00, 1011.4,   58.0, -999.0
22-06-2022, 00:31:18,    190,    0.0,   14.6,   0.00,   0.00, 1011.4,   58.0, -999.0
22-06-2022, 00:31:27,    190,    0.0,   14.5,   0.00,   0.00, 1011.4,   58.1, -999.0
22-06-2022, 00:31:38,    190,    0.0,   14.6,   0.00,   0.00, 1011.4,   58.0, -999.0
22-06-2022, 00:31:48,    190,    0.0,   14.6,   0.00,   0.00, 1011.5,   58.2, -999.0
22-06-2022, 00:31:57,    190,    0.0,   14.6,   0.00,   0.00, 1011.4,   58.2, -999.0
22-06-2022, 00:32:07,    190,    0.0,   14.6,   0.00,   0.00, 1011.4,   58.2, -999.0
22-06-2022, 00:32:18,    190,    0.0,   14.6,   0.00,   0.00, 1011.4,   58.1, -999.0
22-06-2022, 00:32:27,    190,    0.0,   14.6,   0.00,   0.00, 1011.4,   58.1, -999.0
22-06-2022, 00:32:37,    190,    0.0,   14.7,   0.00,   0.00, 1011.4,   57.9, -999.0
22-06-2022, 00:32:47,    190,    0.0,   14.7,   0.00,   0.00, 1011.4,   58.0, -999.0
22-06-2022, 00:32:57,    190,    0.0,   14.6,   0.00,   0.00, 1011.4,   57.9, -999.0
22-06-2022, 00:33:07,    190,    0.0,   14.6,   0.00,   0.00, 1011.4,   58.0, -999.0
22-06-2022, 00:33:17,    190,    0.0,   14.7,   0.00,   0.00, 1011.4,   57.9, -999.0
22-06-2022, 00:33:27,    190,    0.0,   14.7,   0.00,   0.00, 1011.4,   57.9, -999.0
22-06-2022, 00:33:37,    190,    0.0,   14.6,   0.00,   0.00, 1011.4,   58.0, -999.0
22-06-2022, 00:33:47,    189,    0.0,   14.6,   0.00,   0.00, 1011.4,   58.0, -999.0
22-06-2022, 00:33:57,    189,    0.0,   14.7,   0.00,   0.00, 1011.4,   57.9, -999.0
22-06-2022, 00:34:07,    190,    0.0,   14.6,   0.00,   0.00, 1011.4,   58.0, -999.0
22-06-2022, 00:34:17,    190,    0.0,   14.5,   0.00,   0.00, 1011.4,   58.0, -999.0
22-06-2022, 00:34:27,    190,    0.0,   14.6,   0.00,   0.00, 1011.4,   58.0, -999.0
22-06-2022, 00:34:36,    190,    0.0,   14.6,   0.00,   0.00, 1011.4,   57.9, -999.0
22-06-2022, 00:34:47,    190,    0.0,   14.5,   0.00,   0.00, 1011.4,   57.9, -999.0
22-06-2022, 00:34:56,    187,    0.0,   14.5,   0.00,   0.00, 1011.4,   58.0, -999.0
22-06-2022, 00:35:06,    190,    0.0,   14.5,   0.00,   0.00, 1011.4,   58.1, -999.0
22-06-2022, 00:35:16,    190,    0.0,   14.5,   0.00,   0.00, 1011.4,   58.1, -999.0
22-06-2022, 00:35:26,    190,    0.0,   14.4,   0.00,   0.00, 1011.4,   58.2, -999.0
22-06-2022, 00:35:36,    190,    0.0,   14.4,   0.00,   0.00, 1011.4,   58.2, -999.0
22-06-2022, 00:35:46,    190,    0.0,   14.4,   0.00,   0.00, 1011.4,   58.2, -999.0
22-06-2022, 00:35:56,    190,    0.0,   14.4,   0.00,   0.00, 1011.4,   58.2, -999.0
22-06-2022, 00:36:06,    190,    0.0,   14.4,   0.00,   0.00, 1011.4,   58.3, -999.0
22-06-2022, 00:36:16,    190,    0.0,   14.4,   0.00,   0.00, 1011.4,   58.4, -999.0
22-06-2022, 00:36:26,    190,    0.0,   14.5,   0.00,   0.00, 1011.4,   58.3, -999.0
22-06-2022, 00:36:36,    190,    0.0,   14.5,   0.00,   0.00, 1011.4,   58.5, -999.0
22-06-2022, 00:36:46,    190,    0.0,   14.5,   0.00,   0.00, 1011.4,   58.3, -999.0
22-06-2022, 00:36:56,    190,    0.0,   14.4,   0.00,   0.00, 1011.4,   58.3, -999.0
22-06-2022, 00:37:05,    190,    0.0,   14.4,   0.00,   0.00, 1011.4,   58.3, -999.0
22-06-2022, 00:37:16,    190,    0.0,   14.5,   0.00,   0.00, 1011.4,   58.3, -999.0
22-06-2022, 00:37:26,    190,    0.0,   14.4,   0.00,   0.00, 1011.4,   58.3, -999.0
22-06-2022, 00:37:35,    190,    0.0,   14.4,   0.00,   0.00, 1011.4,   58.5, -999.0
22-06-2022, 00:37:45,    190,    0.0,   14.3,   0.00,   0.00, 1011.4,   58.4, -999.0
22-06-2022, 00:37:56,    190,    0.0,   14.4,   0.00,   0.00, 1011.4,   58.4, -999.0
22-06-2022, 00:38:05,    190,    0.0,   14.4,   0.00,   0.00, 1011.4,   58.6, -999.0
22-06-2022, 00:38:15,    190,    0.0,   14.4,   0.00,   0.00, 1011.4,   58.8, -999.0
22-06-2022, 00:38:25,    190,    0.0,   14.3,   0.00,   0.00, 1011.4,   58.5, -999.0
22-06-2022, 00:38:35,    190,    0.0,   14.4,   0.00,   0.00, 1011.4,   58.7, -999.0
22-06-2022, 00:38:45,    190,    0.0,   14.4,   0.00,   0.00, 1011.4,   58.7, -999.0
22-06-2022, 00:38:55,    190,    0.0,   14.4,   0.00,   0.00, 1011.4,   58.7, -999.0
22-06-2022, 00:39:05,    190,    0.0,   14.3,   0.00,   0.00, 1011.4,   58.7, -999.0
22-06-2022, 00:39:15,    190,    0.0,   14.3,   0.00,   0.00, 1011.4,   58.7, -999.0
22-06-2022, 00:39:25,    190,    0.0,   14.4,   0.00,   0.00, 1011.4,   58.6, -999.0
22-06-2022, 00:39:35,    190,    0.0,   14.3,   0.00,   0.00, 1011.4,   58.6, -999.0
22-06-2022, 00:39:45,    190,    0.0,   14.3,   0.00,   0.00, 1011.4,   58.7, -999.0
22-06-2022, 00:39:55,    190,    0.0,   14.4,   0.00,   0.00, 1011.4,   58.7, -999.0
22-06-2022, 00:40:05,    190,    0.0,   14.4,   0.00,   0.00, 1011.4,   58.7, -999.0
22-06-2022, 00:40:14,    190,    0.0,   14.3,   0.00,   0.00, 1011.4,   59.0, -999.0
22-06-2022, 00:40:25,    189,    0.0,   14.3,   0.00,   0.00, 1011.4,   58.9, -999.0
22-06-2022, 00:40:35,    190,    0.0,   14.3,   0.00,   0.00, 1011.4,   58.8, -999.0
22-06-2022, 00:40:44,    190,    0.0,   14.3,   0.00,   0.00, 1011.4,   58.8, -999.0
22-06-2022, 00:40:55,    190,    0.0,   14.4,   0.00,   0.00, 1011.5,   58.9, -999.0
22-06-2022, 00:41:04,    190,    0.0,   14.4,   0.00,   0.00, 1011.4,   58.9, -999.0
22-06-2022, 00:41:14,    190,    0.0,   14.4,   0.00,   0.00, 1011.4,   58.8, -999.0
22-06-2022, 00:41:24,    190,    0.0,   14.3,   0.00,   0.00, 1011.5,   58.8, -999.0
22-06-2022, 00:41:34,    190,    0.0,   14.3,   0.00,   0.00, 1011.5,   58.8, -999.0
22-06-2022, 00:41:44,    190,    0.0,   14.3,   0.00,   0.00, 1011.5,   58.8, -999.0
22-06-2022, 00:41:54,    190,    0.0,   14.4,   0.00,   0.00, 1011.5,   58.8, -999.0
22-06-2022, 00:42:04,    190,    0.0,   14.4,   0.00,   0.00, 1011.4,   58.8, -999.0
22-06-2022, 00:42:14,    190,    0.0,   14.3,   0.00,   0.00, 1011.5,   58.9, -999.0
22-06-2022, 00:42:24,    190,    0.0,   14.3,   0.00,   0.00, 1011.5,   58.9, -999.0
22-06-2022, 00:42:34,    190,    0.0,   14.2,   0.00,   0.00, 1011.5,   58.8, -999.0
22-06-2022, 00:42:44,    190,    0.0,   14.2,   0.00,   0.00, 1011.5,   58.8, -999.0
22-06-2022, 00:42:54,    190,    0.0,   14.2,   0.00,   0.00, 1011.5,   58.9, -999.0
22-06-2022, 00:43:04,    190,    0.0,   14.3,   0.00,   0.00, 1011.5,   59.0, -999.0
22-06-2022, 00:43:14,    190,    0.0,   14.2,   0.00,   0.00, 1011.5,   59.1, -999.0
22-06-2022, 00:43:24,    191,    0.0,   14.2,   0.00,   0.00, 1011.5,   59.0, -999.0
22-06-2022, 00:43:34,    190,    0.0,   14.3,   0.00,   0.00, 1011.5,   59.0, -999.0
22-06-2022, 00:43:43,    190,    0.0,   14.3,   0.00,   0.00, 1011.5,   59.2, -999.0
22-06-2022, 00:43:53,    190,    0.0,   14.3,   0.00,   0.00, 1011.5,   59.0, -999.0
22-06-2022, 00:44:04,    190,    0.0,   14.3,   0.00,   0.00, 1011.5,   59.0, -999.0
22-06-2022, 00:44:13,    190,    0.0,   14.2,   0.00,   0.00, 1011.5,   59.1, -999.0
22-06-2022, 00:44:23,    190,    0.0,   14.1,   0.00,   0.00, 1011.5,   59.4, -999.0
22-06-2022, 00:44:33,    190,    0.0,   14.2,   0.00,   0.00, 1011.5,   59.1, -999.0
22-06-2022, 00:44:43,    190,    0.0,   14.1,   0.00,   0.00, 1011.5,   59.2, -999.0
22-06-2022, 00:44:53,    190,    0.0,   14.1,   0.00,   0.00, 1011.5,   59.2, -999.0
22-06-2022, 00:45:03,    190,    0.0,   14.1,   0.00,   0.00, 1011.4,   59.2, -999.0
22-06-2022, 00:45:13,    190,    0.0,   14.1,   0.00,   0.00, 1011.5,   59.3, -999.0
22-06-2022, 00:45:23,    190,    0.0,   14.1,   0.00,   0.00, 1011.5,   59.4, -999.0
22-06-2022, 00:45:33,    190,    0.0,   14.0,   0.00,   0.00, 1011.5,   59.3, -999.0
22-06-2022, 00:45:43,    190,    0.0,   14.0,   0.00,   0.00, 1011.5,   59.5, -999.0
22-06-2022, 00:45:52,    190,    0.0,   14.0,   0.00,   0.00, 1011.4,   59.4, -999.0
22-06-2022, 00:46:03,    190,    0.0,   13.9,   0.00,   0.00, 1011.5,   59.4, -999.0
22-06-2022, 00:46:13,    190,    0.0,   13.9,   0.00,   0.00, 1011.5,   59.6, -999.0
22-06-2022, 00:46:22,    190,    0.0,   13.8,   0.00,   0.00, 1011.5,   59.8, -999.0
22-06-2022, 00:46:33,    190,    0.0,   13.8,   0.00,   0.00, 1011.5,   59.9, -999.0
22-06-2022, 00:46:43,    190,    0.0,   13.8,   0.00,   0.00, 1011.5,   60.1, -999.0